1489039200.76,62130,6.88,73190.8,-6.11,-11.55,-11.41,0,*55
1489039202.04,62131,6.88,73194.5,-6.11,-11.33,-11.33,0,*51
1489039203.3,62132,6.88,73190.3,-6.11,-11.41,-11.33,0,*57
1489039204.56,62133,6.88,73186.0,-6.11,-11.41,-11.29,0,*5D
1489039205.83,62134,6.88,73182.8,-6.11,-11.41,-11.29,0,*5A
1489039207.08,62135,6.88,73194.8,-6.11,-11.41,-11.33,0,*50
1489039208.33,62136,6.88,73176.3,-6.11,-11.45,-11.41,0,*52
1489039209.59,62137,6.88,73180.0,-6.11,-11.41,-11.29,0,*59
1489039210.86,62138,6.88,73192.3,-6.11,-11.55,-11.41,0,*5D
1489039212.12,62139,6.88,73188.8,-6.11,-11.55,-11.41,0,*5C
1489039213.37,62140,6.88,73196.8,-6.11,-11.45,-11.41,0,*53
1489039214.62,62141,6.88,73190.8,-6.11,-11.41,-11.33,0,*53
1489039215.86,62142,6.88,73188.3,-6.09,-11.29,-11.23,0,*56
1489039217.1,62143,6.88,73192.5,-6.09,-11.55,-11.41,0,*58
1489039218.36,62144,6.88,73196.3,-6.11,-11.45,-11.33,0,*52
1489039219.6,62145,6.88,73198.5,-6.11,-11.41,-11.23,0,*56
1489039220.86,62146,6.88,73184.5,-6.11,-11.33,-11.23,0,*50
1489039222.15,62147,6.88,73180.3,-6.11,-11.29,-11.29,0,*50
1489039223.44,62148,6.88,73178.8,-6.11,-11.29,-11.29,0,*5F
1489039224.73,62149,6.88,73170.8,-6.11,-11.29,-11.29,0,*5E
1489039226.01,62150,6.88,73158.8,-6.11,-11.33,-11.29,0,*5D
1489039227.25,62151,6.88,73158.0,-6.09,-11.41,-11.37,0,*5F
1489039228.5,62152,6.88,73154.0,-6.09,-11.37,-11.37,0,*5D
1489039229.79,62153,6.88,73170.3,-6.11,-11.55,-11.55,0,*55
1489039231.06,62154,6.88,73162.0,-6.11,-11.45,-11.55,0,*53
1489039232.35,62155,6.88,73164.5,-6.11,-11.59,-11.55,0,*5F
1489039233.63,62156,6.88,73160.0,-6.11,-11.55,-11.55,0,*50
1489039234.89,62157,6.88,73148.3,-6.09,-11.51,-11.51,0,*58
1489039236.18,62158,6.88,73144.3,-6.11,-11.55,-11.55,0,*5E
1489039237.46,62159,6.88,73144.8,-6.11,-11.59,-11.59,0,*5F
1489039238.75,62160,6.88,73150.0,-6.11,-11.67,-11.67,0,*55
1489039240.03,62161,6.88,73160.0,-6.11,-11.73,-11.77,0,*50
1489039241.31,62162,6.88,73166.0,-6.11,-11.73,-11.81,0,*5A
1489039242.59,62163,6.88,73170.5,-6.11,-11.73,-11.81,0,*5B
1489039243.87,62164,6.88,73168.5,-6.11,-11.67,-11.73,0,*54
1489039245.16,62165,6.88,73174.0,-6.11,-11.67,-11.73,0,*55
1489039246.44,62166,6.88,73176.3,-6.11,-11.55,-11.55,0,*53
1489039247.73,62167,6.88,73182.5,-6.11,-11.67,-11.73,0,*57
1489039249.01,62168,6.88,73178.8,-6.11,-11.73,-11.59,0,*55
1489039250.27,62169,6.88,73186.8,-6.09,-11.67,-11.67,0,*55
1489039251.55,62170,6.88,73186.5,-6.11,-11.73,-11.59,0,*5C
1489039252.84,62171,6.88,73182.8,-6.11,-11.67,-11.59,0,*58
1489039254.12,62172,6.88,73164.8,-6.11,-11.73,-11.59,0,*5E
1489039255.38,62173,6.88,73168.3,-6.09,-11.63,-11.55,0,*5B
1489039256.64,62174,6.88,73184.3,-6.09,-11.67,-11.51,0,*5C
1489039257.92,62175,6.88,73184.0,-6.11,-11.73,-11.55,0,*55
1489039259.19,62176,6.88,73182.5,-6.11,-11.67,-11.45,0,*52
1489039260.45,62177,6.88,73180.5,-6.11,-11.67,-11.45,0,*53
1489039261.73,62178,6.88,73178.8,-6.11,-11.73,-11.59,0,*54
1489039262.99,62179,6.88,73180.5,-6.09,-11.67,-11.63,0,*50
1489039264.26,62180,6.88,73178.3,-6.09,-11.67,-11.63,0,*56
1489039265.54,62181,6.88,73168.0,-6.11,-11.73,-11.55,0,*5E
1489039266.82,62182,6.88,73164.0,-6.11,-11.73,-11.59,0,*51
1489039268.08,62183,6.88,73170.8,-6.09,-11.67,-11.51,0,*54
1489039269.36,62184,6.88,73170.3,-6.11,-11.73,-11.55,0,*5B
1489039270.65,62185,6.88,73168.5,-6.11,-11.73,-11.55,0,*5A
1489039271.9,62186,6.88,73172.3,-6.11,-11.73,-11.45,0,*58
1489039273.16,62187,6.88,73170.8,-6.09,-11.67,-11.51,0,*50
1489039274.42,62188,6.88,73166.0,-6.09,-11.77,-11.55,0,*5A
1489039275.7,62189,6.88,73164.5,-6.11,-11.73,-11.55,0,*56
1489039276.96,62190,6.88,73160.0,-6.11,-11.73,-11.45,0,*5F
1489039278.22,62191,6.88,73156.5,-6.09,-11.77,-11.55,0,*52
1489039279.46,62192,6.88,73146.3,-6.09,-11.77,-11.41,0,*54
1489039280.74,62193,6.88,73136.8,-6.11,-11.85,-11.67,0,*55
1489039282.0,62194,6.88,73124.3,-6.09,-11.77,-11.63,0,*52
1489039283.29,62195,6.88,73128.8,-6.11,-11.85,-11.63,0,*57
1489039284.55,62196,6.88,73132.5,-6.09,-11.81,-11.67,0,*5D
1489039285.83,62197,6.88,73126.3,-6.11,-11.81,-11.67,0,*55
1489039287.09,62198,6.88,73128.8,-6.09,-11.67,-11.51,0,*5E
1489039288.37,62199,6.88,73136.8,-6.11,-11.73,-11.55,0,*57
1489039289.66,62200,6.88,73134.0,-6.11,-11.67,-11.55,0,*51
1489039290.92,62201,6.88,73144.0,-6.11,-11.73,-11.45,0,*54
1489039292.2,62202,6.88,73154.0,-6.11,-11.73,-11.55,0,*56
1489039293.46,62203,6.88,73154.8,-6.09,-11.67,-11.55,0,*5B
1489039294.75,62204,6.88,73154.5,-6.11,-11.73,-11.55,0,*50
1489039296.03,62205,6.88,73156.5,-6.11,-11.73,-11.55,0,*51
1489039297.27,62206,6.88,73162.8,-6.09,-11.55,-11.41,0,*5A
1489039298.52,62207,6.88,73164.0,-6.09,-11.55,-11.37,0,*5A
1489039299.79,62208,6.88,73170.3,-6.09,-11.63,-11.29,0,*5F
1489039301.04,62209,6.88,73168.5,-6.09,-11.55,-11.37,0,*54
1489039302.28,62210,6.88,73170.8,-6.09,-11.41,-11.29,0,*56
1489039303.49,62211,6.81,73182.5,-6.09,-11.41,-11.23,0,*5D
1489039304.75,62212,6.88,73192.3,-6.09,-11.55,-11.37,0,*5E
1489039306.0,62213,6.88,73196.8,-6.09,-11.51,-11.37,0,*5B
1489039307.27,62214,6.88,73198.0,-6.11,-11.67,-11.41,0,*51
1489039308.52,62215,6.88,73196.5,-6.09,-11.51,-11.29,0,*52
1489039309.74,62216,6.88,73200.5,-6.09,-11.41,-11.19,0,*53
1489039310.97,62217,6.88,73206.8,-6.09,-11.55,-11.19,0,*57
1489039312.2,62218,6.88,73214.8,-6.09,-11.55,-11.23,0,*51
1489039313.46,62219,6.88,73202.3,-6.11,-11.55,-11.23,0,*59
1489039314.72,62220,6.88,73192.0,-6.07,-11.55,-11.23,0,*54
1489039315.98,62221,6.88,73200.3,-6.07,-11.51,-11.11,0,*50
1489039317.21,62222,6.88,73196.5,-6.09,-11.51,-11.11,0,*5D
1489039318.44,62223,6.88,73190.0,-6.09,-11.51,-11.11,0,*5C
1489039319.7,62224,6.88,73194.8,-6.07,-11.51,-11.19,0,*5D
1489039320.96,62225,6.88,73194.5,-6.11,-11.55,-11.23,0,*56
1489039322.19,62226,6.88,73188.0,-6.07,-11.41,-11.11,0,*56
1489039323.43,62227,6.88,73190.0,-6.09,-11.55,-11.11,0,*5C
1489039324.67,62228,6.88,73190.5,-6.09,-11.67,-11.41,0,*57
1489039325.9,62229,6.88,73186.8,-6.09,-11.67,-11.41,0,*56
1489039327.14,62230,6.88,73194.3,-6.09,-11.67,-11.41,0,*5E
1489039328.4,62231,6.88,73198.0,-6.09,-11.63,-11.51,0,*5A
1489039329.66,62232,6.88,73198.3,-6.09,-11.67,-11.51,0,*5D
1489039330.92,62233,6.88,73198.8,-6.11,-11.67,-11.41,0,*54
1489039332.18,62234,6.88,73196.8,-6.09,-11.67,-11.51,0,*5B
1489039333.42,62235,6.88,73198.8,-6.09,-11.67,-11.41,0,*5B
1489039334.67,62236,6.88,73204.5,-6.09,-11.73,-11.51,0,*5C
1489039335.93,62237,6.88,73212.5,-6.09,-11.81,-11.63,0,*51
1489039337.21,62238,6.88,73208.3,-6.11,-11.81,-11.55,0,*52
1489039338.49,62239,6.88,73210.0,-6.11,-11.67,-11.33,0,*5B
1489039339.75,62240,6.88,73202.0,-6.09,-11.63,-11.29,0,*53
1489039341.02,62241,6.88,73208.8,-6.11,-11.67,-11.23,0,*55
1489039342.25,62242,6.88,73216.3,-6.13,-11.55,-11.23,0,*55
1489039343.51,62243,6.88,73192.5,-6.11,-11.59,-11.23,0,*5A
1489039344.75,62244,6.88,73200.3,-6.11,-11.45,-11.15,0,*55
1489039345.99,62245,6.88,73188.5,-6.11,-11.41,-11.11,0,*54
1489039347.23,62246,6.88,73202.3,-6.11,-11.41,-11.11,0,*57
1489039348.44,62247,6.88,73192.0,-6.13,-11.41,-11.11,0,*54
1489039349.68,62248,6.88,73192.8,-6.13,-11.33,-11.11,0,*5E
1489039350.91,62249,6.88,73184.3,-6.13,-11.33,-11.11,0,*5F
1489039352.15,62250,6.88,73188.8,-6.11,-11.41,-11.23,0,*51
1489039353.39,62251,6.88,73198.5,-6.11,-11.45,-11.11,0,*55
1489039354.63,62252,6.88,73196.5,-6.13,-11.29,-11.15,0,*5A
1489039355.87,62253,6.88,73172.5,-6.13,-11.33,-11.15,0,*50
1489039357.08,62254,6.81,73182.3,-6.13,-11.23,-11.01,0,*53
1489039358.32,62255,6.88,73200.8,-6.13,-11.29,-11.15,0,*5D
1489039359.56,62256,6.88,73212.0,-6.13,-11.29,-11.11,0,*5A
1489039360.77,62257,6.88,73202.8,-6.13,-11.23,-11.11,0,*51
1489039361.98,62258,6.88,73170.5,-6.13,-11.15,-11.11,0,*5B
1489039363.19,62259,6.88,73186.5,-6.13,-11.15,-11.15,0,*5E
1489039364.43,62260,6.88,73168.3,-6.13,-11.29,-11.23,0,*5E
1489039365.64,62261,6.88,73170.5,-6.13,-11.11,-11.11,0,*55
1489039366.85,62262,6.88,73174.0,-6.13,-11.01,-11.01,0,*56
1489039368.07,62263,6.88,73172.8,-6.13,-11.11,-11.01,0,*56
1489039369.28,62264,6.88,73206.5,-6.13,-11.11,-11.01,0,*51
1489039370.48,62265,6.88,73200.5,-6.13,-11.11,-11.11,0,*51
1489039371.69,62266,6.88,73182.8,-6.13,-11.15,-11.15,0,*52
1489039372.9,62267,6.88,73160.5,-6.13,-11.15,-11.15,0,*53
1489039374.11,62268,6.88,73150.0,-6.13,-11.15,-11.15,0,*5C
1489039375.32,62269,6.88,73174.5,-6.13,-11.15,-11.11,0,*59
1489039376.54,62270,6.88,73178.0,-6.13,-11.01,-11.11,0,*54
1489039377.75,62271,6.88,73186.5,-6.13,-11.01,-11.11,0,*55
1489039378.96,62272,6.88,73194.5,-6.13,-11.15,-11.15,0,*57
1489039380.17,62273,6.88,73188.0,-6.13,-11.11,-11.01,0,*57
1489039381.39,62274,6.88,73182.3,-6.13,-11.01,-11.01,0,*51
1489039382.6,62275,6.88,73178.3,-6.13,-11.01,-11.01,0,*50
1489039383.82,62276,6.88,73170.8,-6.13,-11.01,-11.01,0,*53
1489039385.03,62277,6.88,73172.5,-6.13,-11.11,-11.01,0,*53
1489039386.24,62278,6.88,73172.5,-6.13,-11.11,-10.97,0,*52
1489039387.46,62279,6.88,73172.3,-6.13,-11.01,-11.01,0,*5C
1489039388.67,62280,6.88,73174.0,-6.13,-11.11,-11.01,0,*5B
1489039389.88,62281,6.88,73174.3,-6.13,-11.23,-11.23,0,*5B
1489039391.09,62282,6.88,73176.5,-6.13,-11.15,-11.23,0,*5D
1489039392.31,62283,6.88,73170.5,-6.13,-11.01,-11.15,0,*5C
1489039393.57,62284,6.88,73172.3,-6.13,-11.29,-11.29,0,*5E
1489039394.78,62285,6.88,73176.5,-6.13,-11.15,-11.23,0,*5A
1489039396.02,62286,6.88,73178.8,-6.13,-11.15,-11.29,0,*53
1489039397.23,62287,6.88,73180.5,-6.13,-11.15,-11.15,0,*5D
1489039398.46,62288,6.88,73180.0,-6.13,-11.15,-11.33,0,*56
1489039399.69,62289,6.88,73184.0,-6.13,-11.11,-11.29,0,*58
1489039400.9,62290,6.88,73182.3,-6.13,-11.11,-11.15,0,*5F
1489039402.11,62291,6.81,73178.5,-6.13,-11.15,-11.23,0,*5F
1489039403.34,62292,6.88,73178.3,-6.13,-11.23,-11.33,0,*58
1489039404.58,62293,6.88,73182.8,-6.13,-11.23,-11.29,0,*52
1489039405.84,62294,6.88,73176.5,-6.13,-11.33,-11.33,0,*5F
1489039407.1,62295,6.88,73168.5,-6.13,-11.33,-11.29,0,*55
1489039408.36,62296,6.88,73170.8,-6.13,-11.33,-11.29,0,*56
1489039409.58,62297,6.88,73172.5,-6.13,-11.41,-11.41,0,*5C
1489039410.84,62298,6.88,73172.8,-6.13,-11.55,-11.55,0,*53
1489039412.06,62299,6.88,73178.8,-6.13,-11.45,-11.45,0,*52
1489039413.27,62300,6.88,73180.8,-6.13,-11.41,-11.45,0,*57
1489039414.51,62301,6.88,73184.5,-6.13,-11.41,-11.33,0,*57
1489039415.73,62302,6.88,73174.8,-6.13,-11.45,-11.41,0,*55
1489039416.98,62303,6.88,73182.0,-6.17,-11.51,-11.37,0,*54
1489039418.2,62304,6.88,73188.0,-6.17,-11.45,-11.19,0,*5A
1489039419.43,62305,6.88,73184.0,-6.17,-11.33,-11.19,0,*5A
1489039420.66,62306,6.81,73182.3,-6.13,-11.33,-11.23,0,*54
1489039421.87,62307,6.88,73194.5,-6.13,-11.15,-11.11,0,*50
1489039423.11,62308,6.88,73190.0,-6.17,-11.07,-11.01,0,*59
1489039424.35,62309,6.88,73190.5,-6.17,-11.07,-11.01,0,*58
1489039425.56,62310,6.88,73180.5,-6.17,-11.01,-11.01,0,*56
1489039426.83,62311,6.88,73176.5,-6.17,-11.07,-11.07,0,*57
1489039428.04,62312,6.88,73168.3,-6.17,-10.93,-11.01,0,*5E
1489039429.25,62313,6.81,73168.3,-6.17,-10.93,-11.01,0,*5F
1489039430.46,62314,6.88,73192.8,-6.17,-10.93,-11.01,0,*58
1489039431.7,62315,6.88,73190.5,-6.17,-11.01,-11.07,0,*55
1489039432.94,62316,6.81,73170.0,-6.17,-11.01,-11.07,0,*56
1489039434.18,62317,6.88,73174.8,-6.17,-10.93,-11.07,0,*5D
1489039435.42,62318,6.88,73182.5,-6.17,-11.01,-11.07,0,*58
1489039436.66,62319,6.88,73176.0,-6.17,-11.07,-11.19,0,*50
1489039437.89,62320,6.88,73170.3,-6.17,-11.07,-11.15,0,*56
1489039439.15,62321,6.88,73168.0,-6.17,-11.07,-11.29,0,*58
1489039440.36,62322,6.81,73166.0,-6.17,-11.15,-11.15,0,*57
1489039441.6,62323,6.88,73160.5,-6.17,-11.07,-11.15,0,*55
1489039442.83,62324,6.88,73170.3,-6.19,-11.19,-11.23,0,*56
1489039444.05,62325,6.88,73174.5,-6.17,-11.19,-11.33,0,*58
1489039445.32,62326,6.88,73178.0,-6.17,-11.29,-11.29,0,*53
1489039446.52,62327,6.88,73174.3,-6.17,-11.19,-11.19,0,*52
1489039447.72,62328,6.81,73172.5,-6.17,-11.19,-11.19,0,*5D
1489039448.96,62329,6.88,73174.8,-6.17,-11.29,-11.19,0,*5F
1489039450.2,62330,6.81,73170.5,-6.19,-11.23,-11.19,0,*53
1489039451.41,62331,6.88,73174.0,-6.17,-11.23,-11.23,0,*55
1489039452.67,62332,6.88,73170.8,-6.19,-11.33,-11.19,0,*50
1489039453.87,62333,6.88,73170.5,-6.17,-11.19,-11.15,0,*5B
1489039455.13,62334,6.81,73166.8,-6.17,-11.37,-11.29,0,*5F
1489039456.38,62335,6.81,73166.8,-6.17,-11.37,-11.33,0,*55
1489039457.62,62336,6.88,73172.3,-6.17,-11.33,-11.19,0,*5A
1489039458.85,62337,6.88,73168.3,-6.17,-11.37,-11.19,0,*5F
1489039460.08,62338,6.81,73178.5,-6.17,-11.29,-11.15,0,*53
1489039461.32,62339,6.88,73184.3,-6.13,-11.33,-11.23,0,*58
1489039462.56,62340,6.88,73174.5,-6.13,-11.45,-11.29,0,*5D
1489039463.8,62341,6.81,73164.5,-6.17,-11.45,-11.29,0,*58
1489039465.05,62342,6.88,73164.3,-6.17,-11.45,-11.29,0,*5B
1489039466.28,62343,6.88,73164.5,-6.17,-11.37,-11.15,0,*50
1489039467.49,62344,6.88,73164.8,-6.17,-11.45,-11.19,0,*5E
1489039468.75,62345,6.88,73172.8,-6.17,-11.59,-11.29,0,*51
1489039470.0,62346,6.88,73172.5,-6.17,-11.45,-11.07,0,*53
1489039471.26,62347,6.88,73172.8,-6.17,-11.37,-11.07,0,*57
1489039472.49,62348,6.81,73176.0,-6.13,-11.33,-11.01,0,*5E
1489039473.75,62349,6.88,73182.0,-6.17,-11.37,-11.07,0,*59
1489039475.02,62350,6.88,73184.3,-6.17,-11.33,-11.07,0,*55
1489039476.25,62351,6.88,73188.8,-6.17,-11.37,-11.01,0,*56
1489039477.52,62352,6.88,73190.0,-6.17,-11.29,-11.07,0,*5C
1489039478.78,62353,6.81,73186.8,-6.17,-11.33,-11.07,0,*56
1489039480.04,62354,6.88,73188.8,-6.17,-11.33,-11.07,0,*51
1489039481.26,62355,6.88,73186.5,-6.13,-11.23,-10.97,0,*5D
1489039482.47,62356,6.81,73180.3,-6.13,-11.15,-10.97,0,*5B
1489039483.69,62357,6.88,73180.3,-6.13,-11.23,-11.01,0,*51
1489039484.9,62358,6.88,73184.3,-6.13,-11.23,-10.97,0,*50
1489039486.14,62359,6.88,73182.0,-6.13,-11.33,-11.11,0,*5F
1489039487.36,62360,6.88,73184.0,-6.13,-11.45,-11.23,0,*55
1489039488.59,62361,6.88,73186.5,-6.17,-11.51,-11.15,0,*50
1489039489.8,62362,6.88,73184.5,-6.13,-11.45,-11.15,0,*52
1489039491.02,62363,6.81,73180.8,-6.13,-11.41,-11.15,0,*57
1489039492.25,62364,6.81,73182.8,-6.17,-11.51,-11.19,0,*59
1489039493.5,62365,6.81,73178.0,-6.13,-11.67,-11.33,0,*51
1489039494.74,62366,6.81,73178.8,-6.13,-11.73,-11.41,0,*52
1489039496.0,62367,6.88,73180.3,-6.17,-11.73,-11.29,0,*59
1489039497.25,62368,6.88,73182.5,-6.17,-11.85,-11.51,0,*50
1489039498.55,62369,6.88,73176.8,-6.19,-11.93,-11.55,0,*5C
1489039499.81,62370,6.88,73176.3,-6.19,-12.03,-11.63,0,*5B
1489039501.08,62371,6.88,73176.8,-6.19,-12.03,-11.63,0,*5A
1489039502.38,62372,6.88,73176.0,-6.19,-11.93,-11.55,0,*56
1489039503.64,62373,6.88,73180.5,-6.19,-12.03,-11.55,0,*5D
1489039504.91,62374,6.88,73178.5,-6.19,-11.89,-11.41,0,*5E
1489039506.15,62375,6.81,73174.3,-6.21,-11.93,-11.41,0,*5F
1489039507.4,62376,6.88,73176.0,-6.23,-11.81,-11.23,0,*59
1489039508.66,62377,6.81,73172.3,-6.21,-11.81,-11.37,0,*5F
1489039509.91,62378,6.88,73174.5,-6.21,-11.81,-11.37,0,*50
1489039511.16,62379,6.88,73174.5,-6.21,-11.81,-11.33,0,*55
1489039512.41,62380,6.88,73170.8,-6.21,-11.81,-11.37,0,*57
1489039513.7,62381,6.88,73174.8,-6.23,-11.97,-11.55,0,*57
1489039514.98,62382,6.81,73166.3,-6.23,-11.97,-11.55,0,*54
1489039516.26,62383,6.88,73170.8,-6.23,-11.81,-11.37,0,*56
1489039517.52,62384,6.88,73168.3,-6.23,-11.59,-11.23,0,*51
1489039518.78,62385,6.81,73170.5,-6.23,-11.59,-11.15,0,*55
1489039520.05,62386,6.88,73174.3,-6.23,-11.67,-11.23,0,*5E
1489039521.29,62387,6.81,73168.8,-6.23,-11.41,-11.01,0,*5B
1489039522.53,62388,6.88,73174.8,-6.23,-11.41,-10.97,0,*5A
1489039523.75,62389,6.81,73172.5,-6.21,-11.45,-11.01,0,*53
1489039524.99,62390,6.88,73176.3,-6.23,-11.45,-11.01,0,*59
1489039526.23,62391,6.88,73170.5,-6.23,-11.45,-11.11,0,*59
1489039527.47,62392,6.81,73164.5,-6.23,-11.41,-10.97,0,*51
1489039528.71,62393,6.88,73166.0,-6.23,-11.41,-10.85,0,*53
1489039529.91,62394,6.88,73166.5,-6.21,-11.41,-10.85,0,*56
1489039531.14,62395,6.88,73162.3,-6.21,-11.37,-11.01,0,*5B
1489039532.38,62396,6.88,73154.5,-6.21,-11.33,-10.93,0,*56
1489039533.65,62397,6.88,73154.8,-6.23,-11.55,-10.97,0,*51
1489039534.91,62398,6.81,73150.8,-6.23,-11.59,-11.11,0,*5D
1489039536.17,62399,6.88,73152.0,-6.23,-11.59,-11.15,0,*58
1489039537.41,62400,6.88,73158.0,-6.21,-11.51,-10.97,0,*5E
1489039538.63,62401,6.88,73158.3,-6.25,-11.45,-11.01,0,*50
1489039539.87,62402,6.88,73160.3,-6.25,-11.59,-11.01,0,*5E
1489039541.11,62403,6.88,73160.5,-6.25,-11.55,-10.97,0,*5D
1489039542.33,62404,6.88,73162.3,-6.25,-11.45,-10.97,0,*5B
1489039543.55,62405,6.88,73162.3,-6.25,-11.41,-10.97,0,*5E
1489039544.79,62406,6.88,73162.0,-6.25,-11.37,-10.89,0,*53
1489039546.0,62407,6.81,73158.5,-6.25,-11.45,-10.85,0,*5B
1489039547.22,62408,6.88,73154.0,-6.25,-11.41,-10.97,0,*53
1489039548.48,62409,6.81,73152.5,-6.29,-11.41,-11.07,0,*56
1489039549.73,62410,6.88,73154.0,-6.29,-11.33,-10.93,0,*57
1489039550.94,62411,6.88,73154.3,-6.25,-11.23,-10.85,0,*5C
1489039552.23,62412,6.81,73154.5,-6.29,-11.07,-10.67,0,*59
1489039553.45,62413,6.88,73160.5,-6.25,-11.01,-10.57,0,*51
1489039554.66,62414,6.81,73154.8,-6.25,-10.89,-10.53,0,*53
1489039555.9,62415,6.81,73164.5,-6.25,-10.75,-10.45,0,*56
1489039557.13,62416,6.88,73160.8,-6.29,-10.93,-10.57,0,*52
1489039558.37,62417,6.88,73162.0,-6.25,-10.97,-10.71,0,*5F
1489039559.63,62418,6.81,73166.3,-6.29,-11.01,-10.75,0,*56
1489039560.87,62419,6.81,73178.0,-6.25,-10.75,-10.45,0,*5A
1489039562.11,62420,6.88,73184.8,-6.25,-10.63,-10.45,0,*57
1489039563.35,62421,6.81,73182.0,-6.25,-10.57,-10.41,0,*55
1489039564.59,62422,6.88,73184.5,-6.29,-10.57,-10.45,0,*5E
1489039565.8,62423,6.88,73182.5,-6.25,-10.49,-10.45,0,*5C
1489039567.01,62424,6.81,73166.5,-6.25,-10.53,-10.31,0,*53
1489039568.24,62425,6.88,73168.3,-6.29,-10.45,-10.31,0,*59
1489039569.48,62426,6.88,73168.8,-6.25,-10.41,-10.31,0,*52
1489039570.71,62427,6.88,73168.5,-6.29,-10.49,-10.35,0,*53
1489039571.94,62428,6.81,73168.5,-6.29,-10.49,-10.45,0,*5B
1489039573.15,62429,6.81,73170.8,-6.25,-10.53,-10.31,0,*5E
1489039574.41,62430,6.81,73182.8,-6.29,-10.63,-10.45,0,*5A
1489039575.65,62431,6.88,73186.0,-6.25,-10.57,-10.41,0,*54
1489039576.88,62432,6.88,73192.0,-6.29,-10.57,-10.45,0,*5F
1489039578.12,62433,6.81,73188.8,-6.29,-10.57,-10.35,0,*59
1489039579.33,62434,6.81,73186.5,-6.25,-10.45,-10.27,0,*52
1489039580.58,62435,6.88,73168.8,-6.25,-10.41,-10.19,0,*5A
1489039581.81,62436,6.88,73174.8,-6.25,-10.41,-10.05,0,*54
1489039583.03,62437,6.81,73176.5,-6.25,-10.31,-10.19,0,*5F
1489039584.26,62438,6.81,73164.3,-6.29,-10.45,-10.23,0,*56
1489039585.47,62439,6.81,73172.3,-6.25,-10.31,-10.05,0,*5C
1489039586.69,62440,6.81,73184.5,-6.25,-10.27,-10.01,0,*51
1489039587.91,62441,6.81,73178.3,-6.25,-10.31,-10.01,0,*57
1489039589.12,62442,6.88,73184.0,-6.25,-10.45,-10.27,0,*53
1489039590.34,62443,6.81,73176.3,-6.25,-10.57,-10.31,0,*56
1489039591.58,62444,6.81,73168.5,-6.25,-10.41,-10.27,0,*51
1489039592.8,62445,6.81,73166.0,-6.25,-10.31,-10.15,0,*56
1489039594.02,62446,6.81,73182.8,-6.25,-10.31,-10.15,0,*55
1489039595.26,62447,6.81,73180.8,-6.25,-10.57,-10.41,0,*55
1489039596.49,62448,6.81,73180.8,-6.29,-10.57,-10.31,0,*51
1489039597.74,62449,6.88,73198.0,-6.25,-10.41,-10.27,0,*5C
1489039598.95,62450,6.81,73194.5,-6.25,-10.45,-10.27,0,*50
1489039600.17,62451,6.81,73192.8,-6.25,-10.45,-10.31,0,*56
1489039601.41,62452,6.81,73192.8,-6.25,-10.41,-10.27,0,*56
1489039602.63,62453,6.81,73198.3,-6.25,-10.27,-10.19,0,*5A
1489039603.87,62454,6.81,73202.5,-6.23,-10.27,-10.19,0,*5B
1489039605.12,62455,6.81,73194.3,-6.23,-10.31,-10.19,0,*5D
1489039606.34,62456,6.81,73182.8,-6.25,-10.31,-10.19,0,*58
1489039607.58,62457,6.81,73184.8,-6.25,-10.41,-10.27,0,*53
1489039608.82,62458,6.81,73186.3,-6.25,-10.41,-10.19,0,*51
1489039610.07,62459,6.81,73184.8,-6.25,-10.41,-10.27,0,*5D
1489039611.31,62460,6.81,73190.8,-6.25,-10.41,-10.19,0,*5A
1489039612.56,62461,6.81,73184.3,-6.25,-10.41,-10.27,0,*56
1489039613.78,62462,6.81,73182.3,-6.25,-10.31,-10.19,0,*5F
1489039615.0,62463,6.81,73182.3,-6.25,-10.31,-10.19,0,*5E
1489039616.22,62464,6.81,73182.0,-6.25,-10.31,-10.27,0,*54
1489039617.43,62465,6.81,73182.0,-6.25,-10.27,-10.19,0,*5F
1489039618.67,62466,6.81,73182.3,-6.29,-10.31,-10.19,0,*57
1489039619.89,62467,6.81,73176.8,-6.25,-10.31,-10.15,0,*56
1489039621.11,62468,6.81,73184.8,-6.25,-10.27,-10.15,0,*5E
1489039622.33,62469,6.81,73186.8,-6.25,-10.15,-10.01,0,*5B
1489039623.53,62470,6.81,73178.0,-6.25,-10.05,-9.79,0,*65
1489039624.75,62471,6.81,73162.8,-6.25,-10.19,-10.15,0,*5B
1489039625.98,62472,6.81,73172.0,-6.29,-10.19,-10.09,0,*59
1489039627.22,62473,6.81,73178.0,-6.29,-10.19,-10.19,0,*59
1489039628.44,62474,6.81,73202.5,-6.25,-10.27,-10.19,0,*5F
1489039629.67,62475,6.81,73194.8,-6.29,-10.19,-10.19,0,*5F
1489039630.9,62476,6.81,73184.0,-6.25,-10.19,-10.19,0,*50
1489039632.12,62477,6.81,73186.5,-6.25,-10.19,-10.27,0,*5C
1489039633.34,62478,6.81,73188.3,-6.25,-10.15,-10.27,0,*5F
1489039634.56,62479,6.81,73182.0,-6.25,-10.15,-10.27,0,*5E
1489039635.78,62480,6.81,73186.3,-6.25,-10.15,-10.27,0,*58
1489039637.0,62481,6.81,73180.5,-6.25,-10.31,-10.27,0,*5F
1489039638.24,62482,6.81,73180.5,-6.25,-10.27,-10.41,0,*5B
1489039639.48,62483,6.81,73186.3,-6.25,-10.27,-10.41,0,*5A
1489039640.72,62484,6.81,73188.3,-6.29,-10.35,-10.49,0,*5A
1489039641.94,62485,6.81,73196.8,-6.25,-10.35,-10.49,0,*57
1489039643.16,62486,6.81,73194.0,-6.25,-10.19,-10.31,0,*55
1489039644.4,62487,6.81,73188.0,-6.25,-10.19,-10.41,0,*53
1489039645.62,62488,6.81,73186.8,-6.25,-10.19,-10.31,0,*5B
1489039646.86,62489,6.81,73196.3,-6.25,-10.31,-10.41,0,*57
1489039648.11,62490,6.81,73176.5,-6.25,-10.31,-10.41,0,*5F
1489039649.32,62491,6.81,73166.0,-6.25,-10.31,-10.45,0,*5A
1489039650.56,62492,6.81,73146.8,-6.29,-10.35,-10.35,0,*56
1489039651.79,62493,6.81,73136.3,-6.29,-10.23,-10.35,0,*50
1489039653.02,62494,6.81,73138.5,-6.25,-10.19,-10.19,0,*5C
1489039654.25,62495,6.81,73138.0,-6.29,-10.31,-10.31,0,*51
1489039655.48,62496,6.81,73134.3,-6.29,-10.31,-10.23,0,*51
1489039656.69,62497,6.81,73146.8,-6.25,-10.23,-10.19,0,*56
1489039657.92,62498,6.81,73156.5,-6.29,-10.31,-10.23,0,*5F
1489039659.14,62499,6.81,73162.8,-6.25,-10.15,-10.19,0,*5D
1489039660.38,62500,6.81,73158.5,-6.29,-10.35,-10.31,0,*58
1489039661.61,62501,6.81,73168.5,-6.29,-10.31,-10.31,0,*5D
1489039662.84,62502,6.81,73170.8,-6.29,-10.23,-10.31,0,*5D
1489039664.08,62503,6.81,73174.3,-6.29,-10.31,-10.35,0,*5B
1489039665.32,62504,6.81,73170.8,-6.29,-10.35,-10.35,0,*58
1489039666.55,62505,6.81,73170.3,-6.29,-10.35,-10.45,0,*5E
1489039667.79,62506,6.81,73168.8,-6.29,-10.35,-10.35,0,*5A
1489039669.02,62507,6.81,73168.3,-6.29,-10.35,-10.49,0,*50
1489039670.25,62508,6.81,73164.5,-6.29,-10.49,-10.57,0,*5B
1489039671.48,62509,6.81,73164.5,-6.29,-10.45,-10.49,0,*59
1489039672.72,62510,6.81,73164.0,-6.25,-10.31,-10.41,0,*56
1489039673.95,62511,6.81,73170.5,-6.29,-10.23,-10.23,0,*5C
1489039675.17,62512,6.81,73170.0,-6.29,-10.05,-10.09,0,*53
1489039676.39,62513,6.81,73168.3,-6.29,-10.05,-10.05,0,*5E
1489039677.61,62514,6.81,73172.8,-6.29,-10.05,-10.09,0,*55
1489039678.81,62515,6.81,73170.3,-6.25,-10.01,-9.93,0,*67
1489039680.03,62516,6.81,73172.3,-6.29,-9.97,-9.97,0,*5B
1489039681.22,62517,6.81,73170.8,-6.25,-9.93,-9.93,0,*56
1489039682.44,62518,6.81,73172.0,-6.29,-9.93,-9.93,0,*55
1489039683.65,62519,6.81,73180.8,-6.29,-9.97,-10.05,0,*67
1489039684.86,62520,6.81,73176.5,-6.25,-9.93,-10.05,0,*65
1489039686.06,62521,6.81,73182.8,-6.25,-10.01,-10.05,0,*57
1489039687.28,62522,6.81,73180.8,-6.29,-10.09,-10.23,0,*54
1489039688.54,62523,6.81,73184.0,-6.29,-10.31,-10.41,0,*5A
1489039689.78,62524,6.81,73186.5,-6.29,-10.35,-10.45,0,*5D
1489039691.0,62525,6.81,73194.3,-6.29,-10.05,-10.23,0,*5F
1489039692.21,62526,6.81,73190.5,-6.25,-10.01,-10.19,0,*5D
1489039693.45,62527,6.81,73184.3,-6.29,-10.19,-10.31,0,*53
1489039694.66,62528,6.81,73190.5,-6.25,-10.05,-10.27,0,*5A
1489039695.87,62529,6.81,73188.0,-6.25,-10.19,-10.31,0,*51
1489039697.1,62530,6.81,73186.0,-6.29,-10.23,-10.45,0,*5F
1489039698.32,62531,6.81,73186.0,-6.25,-10.01,-10.27,0,*56
1489039699.54,62532,6.81,73182.8,-6.29,-10.09,-10.31,0,*56
1489039700.76,62533,6.81,73172.8,-6.25,-10.15,-10.27,0,*51
1489039702.0,62534,6.81,73174.3,-6.29,-10.19,-10.35,0,*55
1489039703.22,62535,6.81,73174.0,-6.25,-10.19,-10.31,0,*5C
1489039704.45,62536,6.81,73170.5,-6.29,-10.23,-10.45,0,*59